TimePDT,TemperatureF,Dew PointF,Humidity,Sea Level PressureIn,VisibilityMPH,Wind Direction,Wind SpeedMPH,Gust SpeedMPH,PrecipitationIn,Events,Conditions,WindDirDegrees,DateUTC
12:56 AM,25.0,21.9,88,30.27,10.0,Calm,Calm,-,N/A,,Clear,0,2013-04-09 07:56:00
1:56 AM,25.0,21.9,88,30.27,10.0,South,4.6,-,N/A,,Clear,180,2013-04-09 08:56:00
2:56 AM,23.0,19.9,88,30.27,10.0,South,5.8,-,N/A,,Clear,170,2013-04-09 09:56:00
3:56 AM,23.0,19.9,88,30.28,10.0,SSE,4.6,-,N/A,,Clear,160,2013-04-09 10:56:00
4:56 AM,21.9,19.0,89,30.30,10.0,Calm,Calm,-,N/A,,Clear,0,2013-04-09 11:56:00
5:56 AM,21.0,18.0,88,30.32,10.0,SSE,3.5,-,N/A,,Clear,160,2013-04-09 12:56:00
6:56 AM,21.9,19.0,89,30.33,10.0,SSE,3.5,-,N/A,,Clear,150,2013-04-09 13:56:00
7:56 AM,30.0,24.1,79,30.35,10.0,Calm,Calm,-,N/A,,Clear,0,2013-04-09 14:56:00
8:56 AM,37.9,26.1,62,30.34,10.0,South,3.5,-,N/A,,Clear,170,2013-04-09 15:56:00
9:56 AM,45.0,27.0,49,30.32,10.0,Calm,Calm,-,N/A,,Mostly Cloudy,0,2013-04-09 16:56:00
10:56 AM,46.9,28.0,48,30.33,10.0,Variable,3.5,-,N/A,,Overcast,0,2013-04-09 17:56:00
11:56 AM,51.1,28.0,41,30.33,10.0,North,6.9,-,N/A,,Overcast,350,2013-04-09 18:56:00
12:56 PM,54.0,27.0,35,30.31,10.0,North,5.8,-,N/A,,Partly Cloudy,350,2013-04-09 19:56:00
1:56 PM,55.0,21.0,27,30.30,10.0,Variable,3.5,-,N/A,,Partly Cloudy,0,2013-04-09 20:56:00
2:56 PM,57.0,21.0,25,30.28,10.0,Variable,6.9,-,N/A,,Partly Cloudy,0,2013-04-09 21:56:00
3:56 PM,59.0,18.0,20,30.27,10.0,West,6.9,-,N/A,,Mostly Cloudy,270,2013-04-09 22:56:00
4:56 PM,57.9,16.0,19,30.27,10.0,NNW,9.2,-,N/A,,Clear,340,2013-04-09 23:56:00
5:56 PM,60.1,21.0,22,30.26,10.0,North,6.9,-,N/A,,Clear,10,2013-04-10 00:56:00
6:56 PM,54.0,28.0,37,30.27,10.0,WNW,10.4,-,N/A,,Scattered Clouds,290,2013-04-10 01:56:00
7:56 PM,52.0,30.9,45,30.27,10.0,WNW,9.2,-,N/A,,Clear,300,2013-04-10 02:56:00
8:56 PM,50.0,30.9,48,30.27,10.0,West,4.6,-,N/A,,Partly Cloudy,280,2013-04-10 03:56:00
9:56 PM,46.9,32.0,56,30.28,10.0,NW,4.6,-,N/A,,Scattered Clouds,320,2013-04-10 04:56:00
10:56 PM,46.0,32.0,58,30.28,10.0,Calm,Calm,-,N/A,,Mostly Cloudy,0,2013-04-10 05:56:00
11:56 PM,45.0,32.0,60,30.25,10.0,South,5.8,-,N/A,,Mostly Cloudy,190,2013-04-10 06:56:00